Chihuahua, Mexico

8:11 PM MDT on April 26, 2018 (GMT -0600)
Gen Div P A Roberto Fierro

Weather History for MMCU - November, 2013

Change the Weather History Date:

Tuesday, November 26, 2013

  Actual Average Record
Temperature  
Mean Temperature 40 °F -  
Max Temperature 51 °F 67 °F 84 °F (1997)
Min Temperature 30 °F 36 °F 23 °F (2010)
Degree Days  
Heating Degree Days 24    
Moisture  
Dew Point 26 °F    
Average Humidity 58    
Maximum Humidity 100    
Minimum Humidity 28    
Precipitation  
Precipitation 0.00 in - - ()
Sea Level Pressure  
Sea Level Pressure 30.39 in    
Wind  
Wind Speed 3 mph ()    
Max Wind Speed 9 mph    
Max Gust Speed -    
Visibility 8.0 miles    
Events      
Averages and records for this station are not official NWS values.
T = Trace of Precipitation, MM = Missing Value Source: Averaged Metar Reports

Daily Weather History Graph

Daily Weather History Graph

Search for Another Location

Airport or City:

Astronomy

Nov. 26, 2013 Rise Set
Actual Time 6:35 AM MST 5:06 PM MST
Civil Twilight 6:10 AM MST 5:32 PM MST
Nautical Twilight 5:41 AM MST 6:01 PM MST
Astronomical Twilight 5:12 AM MST 6:29 PM MST
Moon 12:12 AM MST (11/26) 12:46 PM MST (11/26)
Length of Visible Light 11h 21m
Length of Day
10h 31m
Last Quarter, 40% of the Moon is Illuminated
Nov 26
Last Quarter
Dec 2
New
Dec 9
First Quarter
Dec 17
Full
Dec 25
Last Quarter

Hourly Weather History & Observations

Time (MST) Temp. Windchill Dew Point Humidity Pressure Visibility Wind Dir Wind Speed Gust Speed Precip Events Conditions
1:45 AM 39 °F - 31 °F 63% 30.21 in 1 mi NNW 6.7 mph - -  
4:40 AM 30.2 °F - 28.4 °F 93% 30.40 in 10.0 mi Calm Calm - N/A   Clear
4:45 AM 31 °F - 29 °F 87% 30.30 in 1 mi Calm Calm - -  
5:44 AM 28.4 °F 20.4 °F 26.6 °F 93% 30.40 in 10.0 mi SSE 8.1 mph - N/A   Clear
7:48 AM 38 °F - 31 °F 66% 30.39 in 6 mi Calm Calm - -  
7:48 AM 32.0 °F - 32.0 °F 100% 30.43 in 10.0 mi Calm Calm - N/A   Partly Cloudy
8:40 AM 39.2 °F - 28.4 °F 65% 30.45 in 10.0 mi Calm Calm - N/A   Partly Cloudy
9:48 AM 42.8 °F 37.5 °F 28.4 °F 57% 30.46 in 10.0 mi WNW 9.2 mph - N/A   Scattered Clouds
10:40 AM 47 °F - 32 °F 44% 30.40 in 6 mi Calm Calm - -  
10:49 AM 46.4 °F - 26.6 °F 46% 30.51 in 10.0 mi Calm Calm - N/A   Partly Cloudy
11:40 AM 48.2 °F - 23.0 °F 37% 30.43 in 10.0 mi North 9.2 mph - N/A   Partly Cloudy
12:40 PM 50.0 °F - 23.0 °F 35% 30.40 in 10.0 mi NNW 8.1 mph - N/A   Clear
1:49 PM 51.8 °F - 21.2 °F 30% 30.40 in 10.0 mi NNE 4.6 mph - N/A   Clear
2:40 PM 51.8 °F - 21.2 °F 30% 30.37 in 10.0 mi Calm Calm - N/A   Clear
3:40 PM 51.8 °F - 19.4 °F 28% 30.36 in 10.0 mi NE 9.2 mph - N/A   Clear
4:40 PM 48.2 °F - 19.4 °F 32% 30.38 in 10.0 mi NE 5.8 mph - N/A   Clear
5:40 PM 35.6 °F 29.2 °F 23.0 °F 60% 30.28 in 10.0 mi East 8.1 mph - N/A   Clear
6:40 PM 35.6 °F 30.7 °F 21.2 °F 56% 30.40 in 10.0 mi ENE 5.8 mph - N/A   Clear
7:40 PM 38 °F - 32 °F 71% 30.27 in 1 mi NNE 2.2 mph - -  
7:40 PM 35.6 °F 29.9 °F 19.4 °F 52% 30.51 in 10.0 mi East 6.9 mph - N/A   Clear
8:40 PM 35.6 °F 32.8 °F 21.2 °F 56% 30.43 in 10.0 mi SE 3.5 mph - N/A   Clear
10:40 PM 32 °F - 28 °F 77% 30.31 in 1 mi WNW 2.2 mph - -